{"data":{"norad_id":65332,"intl_designator":"2025-189K","name":"STARLINK-33890","alt_names":[],"object_type":"PAYLOAD","status":"ACTIVE","operator":null,"country":"US","launch_date":"2025-08-27","launch_site_code":"AFETR","launch_vehicle":null,"mission":null,"orbit_class":"UNKNOWN","rcs_meters":null,"size_class":null,"mass_kg":null,"dimensions":null,"purposes":["comms"],"wikipedia_slug":null,"has_3d_model":false,"image_url":null,"decayed_at":null,"tle_current":{"epoch":"2026-09-20T14:45:27.325440Z","epoch_age_seconds":107644,"freshness":"FRESH","line1":"1 65332U 25189K   26263.61489960  .00021848  00000+0  71338-3 0  9993","line2":"2 65332  53.1572  19.7009 0001083  92.4041 267.7085 15.31716908 59776","mean_motion":15.31716908,"eccentricity":0.0001083,"inclination_deg":53.1572,"raan_deg":19.7009,"arg_perigee_deg":92.4041,"mean_anomaly_deg":267.7085,"bstar":0.00071338,"rev_number":5977,"period_min":94.012150187742,"perigee_km":469.947865901,"apogee_km":471.43132174122,"semimajor_km":6848.8265938211,"source":"CELESTRAK","updated_at":"2026-09-21T09:00:35.570580Z"}}}